Regional Weather Roundup
Issued by NWS

Home | Current Version | Previous Version | Graphics & Text | Print | Product List | Glossary On
Versions: 1 2 3 4 5 6 7 8 9 10 11 12 13 14 15 16 17 18 19 20 21 22 23 24 25 26 27 28 29 30 31 32 33 34 35 36 37 38 39 40 41 42 43 44 45 46 47 48 49 50
000
ASUS45 KPSR 070300
RWRAZ

ARIZONA REGIONAL HOURLY WEATHER ROUNDUP
NATIONAL WEATHER SERVICE PHOENIX AZ
800 PM MST WED MAY 06 2015

NOTE: FAIR INDICATES FEW OR NO CLOUDS BELOW 12,000 FEET WITH NO
SIGNIFICANT WEATHER AND/OR OBSTRUCTIONS TO VISIBILITY.

AZZ001>003-036-070400-
NORTHWEST ARIZONA

CITY           SKY/WX    TMP DP  RH WIND       PRES   REMARKS
KINGMAN        MOCLDY    68  35  29 SW13      29.74R
$$

AZZ004>008-015-016-018-070400-
NORTH CENTRAL ARIZONA

CITY           SKY/WX    TMP DP  RH WIND       PRES   REMARKS
GRAND CANYON   PTCLDY    52  25  35 SW12      29.88R
WILLIAMS       CLEAR     52  28  40 S9G17     29.97R
PRESCOTT       PTCLDY    60  28  29 S5        29.85S
FLAGSTAFF      NOT AVBL
PAYSON         PTCLDY    59  30  33 CALM      29.88S
PAGE           PTCLDY    69  29  22 S8        29.72R
$$

AZZ009>014-017-070400-
NORTHEAST ARIZONA

CITY           SKY/WX    TMP DP  RH WIND       PRES   REMARKS
WINSLOW        NOT AVBL
SAINT JOHNS    PTCLDY    57  28  33 SW7       29.88R
WINDOW ROCK    CLEAR     50  36  58 S5        29.91R
SHOW LOW       PTCLDY    50  25  37 SW6       29.94R
$$

AZZ023-070400-
GREATER PHOENIX AREA

CITY           SKY/WX    TMP DP  RH WIND       PRES   REMARKS
PHOENIX        PTCLDY    80  35  19 W15       29.68R
GLENDALE       PTCLDY    79  39  24 S10       29.71R
DEER VALLEY    CLEAR     77  34  21 SW15      29.70R
SCOTTSDALE     CLEAR     79  34  19 W10G20    29.72R
MESA-FALCON    PTCLDY    79  36  21 SW16      29.69R
MESA-GATEWAY   PTCLDY    79  36  21 SW14G22   29.72
CHANDLER       PTCLDY    79  36  21 SW10      29.70R
$$

AZZ027-028-070400-
SOUTHWEST MARICOPA COUNTY AND PINAL COUNTY

CITY           SKY/WX    TMP DP  RH WIND       PRES   REMARKS
CASA GRANDE    CLEAR     75  34  22 SW13G20   29.71R
$$

AZZ503-504-507>509-070400-
SOUTHEAST ARIZONA

CITY           SKY/WX    TMP DP  RH WIND       PRES   REMARKS
TUCSON         CLEAR     77  29  17 SW9       29.79R
RYAN FIELD       N/A     77  39  25 MISG      29.78R
NOGALES        CLEAR     68  26  20 S10       29.87R
SAFFORD        CLEAR     73  22  14 W9        29.75R
$$

AZZ020-021-025-026-031-070400-
SOUTHWEST ARIZONA

CITY           SKY/WX    TMP DP  RH WIND       PRES   REMARKS
YUMA           CLEAR     77  54  44 SE20      29.67R
$$

CAZ031-033-041-043-047-048-061-070400-
SOUTHERN CALIFORNIA

CITY           SKY/WX    TMP DP  RH WIND       PRES   REMARKS
DOWNTOWN L.A.  PTCLDY    61  47  59 CALM      29.84S
L.A. AIRPORT   PTCLDY    59  51  75 W13       29.85S
SAN DIEGO      CLOUDY    62  51  67 W6        29.89S
BURBANK        CLOUDY    61  45  55 S7        29.83S
ONTARIO        CLOUDY    60  48  64 SW10      29.84S
RIVERSIDE      CLOUDY    61  49  64 W10       29.84R
PALM SPRINGS   CLEAR     75  40  28 NW22      29.67R
EL CENTRO NAS  PTCLDY    70  43  37 W31G38    29.70R
IMPERIAL       CLEAR     70  44  39 W25G32    29.67R
BLYTHE         CLEAR     80  32  17 SW13      29.64R
$$

NVZ020-UTZ003-070400-
SOUTHERN NEVADA-UTAH

CITY           SKY/WX    TMP DP  RH WIND       PRES   REMARKS
LAS VEGAS      NOT AVBL
SALT LAKE CITY RAIN      51  49  92 W5        29.76R FOG
$$

NMZ009-TXZ055-070400-
NEW MEXICO-WEST TEXAS

CITY           SKY/WX    TMP DP  RH WIND       PRES   REMARKS
ALBUQUERQUE    MOCLDY    61  38  42 NE7       29.87R
EL PASO        PTCLDY    78  23  13 W8        29.78R
$$


........................KEY........................
SKY/WX - SKY CONDITION/WEATHER
TMP    - TEMPERATURE IN FAHRENHEIT
DP     - DEW POINT IN FAHRENHEIT
RH     - RELATIVE HUMIDITY IN PERCENT
WIND   - DIRECTION AND SPEED IN MILES PER HOUR (MPH)
VRB    - VARIABLE WIND DIRECTION
PRES   - MEAN SEA LEVEL PRESSURE IN INCHES OF MERCURY
         F - FALLING PRESSURE   R - RISING PRESSURE
         S - STEADY PRESSURE
VSB    - VISIBILITY IN MILES
HX     - HEAT INDEX IN FAHRENHEIT
WCI    - WIND CHILL INDEX IN FAHRENHEIT
TC     - TEMPERATURE IN CELSIUS WHICH IS ALSO KNOWN AS
         TEMPERATURE IN CENTIGRADE
AFB    - AIR FORCE BASE
         LUKE AFB IS LUKE AIR FORCE BASE
         DAVIS-MONTHAN IS DAVIS-MONTHAN AIR FORCE BASE
NAS    - NAVAL AIR STATION
         EL CENTRO NAS IS EL CENTRO NAVAL AIR STATION
N/A    - NOT AVAILABLE




USA.gov is the U.S. government's official web portal to all federal, state and local government web resources and services.